Regional Weather Roundup
Issued by NWS

Home | Current Version | Previous Version | Text Only | Print | Product List | Glossary On
Versions: 1 2 3 4 5 6 7 8 9 10 11 12 13 14 15 16 17 18 19 20 21 22 23 24 25 26 27 28 29 30 31 32 33 34 35 36 37 38 39 40 41 42 43 44 45 46 47 48 49 50
016
ASHW40 PHFO 220532
RWRHI

WEATHER ROUNDUP FOR HAWAII
NATIONAL WEATHER SERVICE HONOLULU HI
700 PM HST SAT OCT 21 2017

THIS IS AN AUTOMATED REPORT THAT HAS NOT BEEN QUALITY CONTROLLED.

NOTE..."FAIR" INDICATES FEW OR NO CLOUDS BELOW 12,000 FEET WITH NO
SIGNIFICANT WEATHER AND/OR OBSTRUCTIONS TO VISIBILITY.

* - THESE SITES REPORT LIMITED FIELDS
# - BUOY DATA PROVIDED BY PACIFIC ISLANDS OCEAN OBSERVING SYSTEM.

HIZ001>004-220600-
KAUAI-NIIHAU-

CITY           SKY/WX    TMP DP  RH WIND       PRES   REMARKS
LIHUE APT      PTCLDY    78  69  73 NE14      30.03R
PORT ALLEN*      N/A     77 N/A N/A NE13        N/A
POIPU*           N/A     77 N/A N/A NE8G16      N/A
PRINCEVILLE*     N/A     75 N/A N/A SE3         N/A
KOKOLE POINT*  NOT AVBL
MOLOAA DAIRY*    N/A     75  68  78 E3G10       N/A
WAIMEA HTS*    NOT AVBL
PUU OPAE*      NOT AVBL
PUU LUA*       NOT AVBL
MAKAHA RIDGE*    N/A     72  57  60 E3G10       N/A
$$

HIZ005>011-220600-
OAHU-

CITY           SKY/WX    TMP DP  RH WIND       PRES   REMARKS
HONOLULU       PTCLDY    79  66  64 NE8       30.00R
KALAELOA       CLEAR     78  66  66 NE7       30.01R
KANEOHE MCB    PTCLDY    80  70  71 E9        29.99R
WHEELER FIELD  FAIR      73  67  80 CALM      30.02
BELLOWS*         N/A    N/A N/A N/A NE15        N/A
KAHUKU*          N/A    N/A N/A N/A E8G14       N/A
WHEELER*       NOT AVBL
WAIANAE HARBOR NOT AVBL
DILLINGHAM*      N/A     79  70  73 NW1G9       N/A
KAHUKU TRN*      N/A     75  68  78 W6G13       N/A
KAWAILOA*        N/A     72  66  83 NE6G13      N/A
KII*             N/A     79  70  73 E14         N/A
MAKUA RANGE*     N/A     70  55  60 W12         N/A
OAHU FOREST NW NOT AVBL
SCHOFIELD BRK*   N/A     66  61  82 MISG        N/A
SCHOFIELD S*   NOT AVBL
WAIANAE VLY*   NOT AVBL
KUAOKALA*      NOT AVBL
HONOULIUULI*   NOT AVBL
MOKUOLOE IS*   NOT AVBL
PALEHUA*       NOT AVBL
WAIAWA PHB*    NOT AVBL
$$

HIZ012>013-220600-
MOLOKAI-

CITY           SKY/WX    TMP DP  RH WIND       PRES   REMARKS
MOLOKAI AIRPT  PTCLDY    77  71  82 NE14      30.02R
KALAUPAPA      NOT AVBL
MAKAPULAPAI*     N/A     75  72  88 E14G25      N/A
MOLOKAI 1*     NOT AVBL
PUU ALII*        N/A     61  61  99 N3G12       N/A
$$

HIZ016-220600-
KAHOOLAWE-

CITY           SKY/WX    TMP DP  RH WIND       PRES   REMARKS
KAHOOLAWE*     NOT AVBL
HAKIOAWA*        N/A     74  70  88 MISG      30.43R
HONOKANAIA*      N/A     78  69  73 NE14G26   29.92
KANELOA*         N/A     75  70  83 E17G26    30.05R
KEALIALALO*    NOT AVBL
LUA MAKIKA*    NOT AVBL
$$

HIZ014>015-220600-
LANAI-

CITY           SKY/WX    TMP DP  RH WIND       PRES   REMARKS
LANAI CITY     FAIR      72  67  84 NE15      30.06R
LANAI 1*       NOT AVBL
$$

HIZ017>028-220600-
MAUI-

CITY           SKY/WX    TMP DP  RH WIND       PRES   REMARKS
KAHULUI        PTCLDY    78  71  79 NE9       30.00R
KAPALUA-W MAUI NOT AVBL
HANA AIRPORT   NOT AVBL
HANA*            N/A     73 N/A N/A S3          N/A
HALEAKALA SUMM   N/A     46  19  34 E18         N/A
MAALAEA BAY*     N/A     77 N/A N/A N16G24      N/A
HALEAKALA*     NOT AVBL
KAUPO GAP*     NOT AVBL
KULA 1*          N/A     52  49  89 VRB2        N/A
$$

HIZ023>026-220600-
BIG ISLAND OF HAWAII COAST AND LOWER SLOPES-

CITY           SKY/WX    TMP DP  RH WIND       PRES   REMARKS
KAILUA KONA    PTCLDY    81  67  62 S7        29.97R
HILO           MOCLDY    75  71  87 SW5       30.02R
HONOKAA*         N/A     70 N/A N/A VRB1        N/A
KAWAIHAE MWT*    N/A     82 N/A N/A N7G13       N/A
KAWAIHAE*        N/A     82 N/A N/A W12       29.97R
SOUTH POINT*     N/A     73 N/A N/A N14         N/A
UPOLU AIRPORT* NOT AVBL
KAMUELA*         N/A     64  63  94 NE14      30.12R
HAKALAU*       NOT AVBL
KALOKO-HONOKO*   N/A     79  70  73 E3        29.97R
PALI 2*          N/A     66  61  82 S6G12       N/A
KEALAKOMO*       N/A     79  66  65 VRB13G18    N/A
KAUPULEHU*     NOT AVBL
KAPAPALA*        N/A     67  67 100 N3          N/A
LOWER KAHUKU*    N/A     97 N/A N/A VRB3G12     N/A
PUHE CS*         N/A     82  66  57 N3G10       N/A
PUHO CS*         N/A     79  71  75 SE1         N/A
PTA KEAMUKU*     N/A     64  59  82 NE6         N/A
WAIKOLOA*      NOT AVBL
$$

HIZ027>028-220600-
BIG ISLAND OF HAWAII INTERIOR AND SUMMMITS-

CITY           SKY/WX    TMP DP  RH WIND       PRES   REMARKS
BRADSHAW FIELD MOCLDY    59  54  85 CALM      30.34R
MK VISITOR CEN   N/A     52  10  19 E3          N/A
MAUNA KEA*       N/A     19 N/A N/A CALM        N/A
MAUNA LOA*       N/A     46  34  61 MISG        N/A
MAUNA LOA 1*   NOT AVBL
PTA KIPUKA*      N/A     61  57  88 SE1         N/A
PTA RANGE 17*    N/A     70  66  88 E2G8        N/A
PTA WEST*      NOT AVBL
NENE CABIN*      N/A     52  52 100 NE3         N/A
AHUMOA*        NOT AVBL
PTA PORTABLE*  NOT AVBL
PUU MALI*        N/A     55  55 100 W5G12       N/A
$$

HIC003-220600-
NORTHWEST ISLANDS-

CITY           SKY/WX    TMP DP  RH WIND       PRES   REMARKS
MIDWAY ISLAND  CLEAR     81  73  78 SW6       30.06R
MIDWAY NOS*      N/A     81 N/A N/A MISG      30.05R
FRENCH FRIGATE NOT AVBL
$$

PHZ110>124-180-220600-
BUOY REPORTS

STATION/POSITION TIME  TEMP    WIND        PRES    WAVE   SWELL
                       AIR SEA DIR/SP/G            HT/PER HT/DIR
                 (UTC) (F)     (DEG/KT/KT) (MB)    (FT/S) (FT/D)
BUOY 51001       0510   78 80  100/ 10/ 14 1017.7
BUOY 51101       0450   78 80   90/ 12/ 14 1017.9R   6/ 9   5/ 70
BUOY 51100       NOT AVBL
BUOY 51002       0510   80 80   60/ 16/ 19 1013.6
BUOY 51003       0450   80 81   40/ 17/ 19 1014.1R   8/ 9   7/ 90
BUOY 51004       0510   80 80   80/ 16/ 17 1014.7
WAIMEA BAY#      0502      78                N/A     5/11   3/330
MOKAPU POINT#    0504      80                N/A     8/ 9   3/ 10
LANAI#           NOT AVBL
BARBERS PT 2#    NOT AVBL
PAUWELA#         NOT AVBL
HILO#            0457      80                N/A     9/12   5/ 20
KANEOHE BAY#     NOT AVBL
KANEOHE BAY 2#   NOT AVBL
HANALEI#         0452      81                N/A     7/ 9   3/350
KAHULUI HARBOR   0500   78 79   50/ 10/ 14 1016.2
HONOLULU HARBOR  0500   79 80   60/  4/  8 1016.8
PEARL HARBOR#    0500      80                N/A     2/10   2/160
KILO NALU        NOT AVBL
HILO HARBOR      0500   76 80  230/  5/  5 1016.4
MOKUOLOE         0436   78 79   80/  8/  9 1016.4R
NAWILIWILI       0500   78      50/  6/  9 1016.7
WHOTS BUOY       NOT AVBL
BUOY 51028       NOT AVBL
$$

......................KEY........................................
  SKY/WX - SKY CONDITIONS/PRESENT WEATHER
  TMP    - TEMPERATURE IN FAHRENHEIT
  DWPT   - DEWPOINT IN FAHRENHEIT
  RH     - RELATIVE HUMIDITY IN PERCENT
  WIND   - DIRECTION AND SPEED /MPH FOR ISLANDS...KTS FOR BUOYS/
  PRES   - MEAN SEA LEVEL PRESSURE IN INCHES OF HG
  VSB    - VISIBILITY IN MILES
  HX     - HEAT INDEX
  WCI    - WIND CHILL INDEX
  VRB    - VARIABLE WIND DIRECTION
  N/A    - NOT AVAILABLE




USA.gov is the U.S. government's official web portal to all federal, state and local government web resources and services.